Location: Haulchin
(50.3172°N, 3.4360°E)
Time: 10:14:05
(UTC+00:00)

Cosmos 1300 - Pass Details

Date: 23 May 2024
Orbit: 465 x 468 km, 82.5° (Epoch: 14 June)

Event Time Altitude Azimuth Distance (km) Brightness Sun altitude
Rises 00:54:35 0° 341° (NNW) 2,517 7.1 -17.3°
Reaches altitude 10° 00:56:48 10° 332° (NNW) 1,634 5.8 -17.2°
Maximum altitude 01:00:00 32° 268° (W) 830 3.5 -17.0°
Enters shadow 01:00:33 30° 249° (WSW) 863 3.5 -17.0°
